EJA845 KUMP-KORL

Flight info

Callsign EJA845
Flight time 1h 53m
Altitude 45000
Route DAWNN1 IIU OCF LEESE3
Aircraft C750/M-SBDE3FGHRWXY/S

Departure

Time 2026-05-04 22:57
Airport Indianapolis Metropolitan Airport (KUMP)

Arrival

Time 2026-05-05 00:50
Airport Orlando Executive Airport (KORL)
Time Latitude Longitude Altitude Speed Heading
2026-05-04 22:34 39.93383 -86.04666 802 ft 0 kts 331°
2026-05-04 22:52 39.93387 -86.04668 802 ft 1 kts 335°
2026-05-04 22:53 39.93390 -86.04668 802 ft 2 kts 353°
2026-05-04 22:53 39.93421 -86.04641 802 ft 7 kts 31°
2026-05-04 22:53 39.93462 -86.04645 802 ft 5 kts 355°
2026-05-04 22:54 39.93499 -86.04626 801 ft 7 kts 359°
2026-05-04 22:54 39.93556 -86.04666 801 ft 10 kts 338°
2026-05-04 22:54 39.93595 -86.04700 800 ft 7 kts 321°
2026-05-04 22:54 39.93671 -86.04769 798 ft 16 kts 326°
2026-05-04 22:55 39.93759 -86.04846 797 ft 15 kts 324°
2026-05-04 22:55 39.93844 -86.04926 792 ft 13 kts 326°
2026-05-04 22:55 39.93917 -86.04945 789 ft 11 kts 45°
2026-05-04 22:55 39.93943 -86.04872 788 ft 6 kts 121°
2026-05-04 22:56 39.93873 -86.04801 793 ft 41 kts 147°
2026-05-04 22:56 39.93328 -86.04317 809 ft 137 kts 148°
2026-05-04 22:56 39.92454 -86.03566 1146 ft 166 kts 155°
2026-05-04 22:56 39.91312 -86.02684 1215 ft 218 kts 154°
2026-05-04 22:57 39.90077 -86.01648 1721 ft 197 kts 155°
2026-05-04 22:57 39.89016 -86.00706 2250 ft 176 kts 154°
2026-05-04 22:57 39.88031 -85.99738 2325 ft 181 kts 154°
2026-05-04 22:57 39.87037 -85.98742 2566 ft 178 kts 154°
2026-05-04 22:58 39.86075 -85.97756 2837 ft 178 kts 154°
2026-05-04 22:58 39.84967 -85.97178 2860 ft 174 kts 193°
2026-05-04 22:58 39.83908 -85.97725 3596 ft 152 kts 210°
2026-05-04 22:58 39.82893 -85.98116 4169 ft 159 kts 199°
2026-05-04 22:59 39.81819 -85.98279 5179 ft 152 kts 187°
2026-05-04 22:59 39.80842 -85.97773 6203 ft 156 kts 163°
2026-05-04 22:59 39.79808 -85.97684 6596 ft 157 kts 210°
2026-05-04 22:59 39.78866 -85.98441 7425 ft 157 kts 216°
2026-05-04 23:00 39.77868 -85.99045 8338 ft 165 kts 206°
2026-05-04 23:00 39.76718 -85.99392 9203 ft 174 kts 200°
2026-05-04 23:00 39.75499 -85.99647 9982 ft 180 kts 199°
2026-05-04 23:00 39.74236 -85.99893 10679 ft 186 kts 198°
2026-05-04 23:01 39.72937 -86.00149 11423 ft 191 kts 198°
2026-05-04 23:01 39.71610 -86.00415 12153 ft 197 kts 198°
2026-05-04 23:01 39.70208 -86.00700 12740 ft 209 kts 197°
2026-05-04 23:01 39.68774 -86.00978 12730 ft 218 kts 197°
2026-05-04 23:02 39.67151 -86.01315 12755 ft 254 kts 196°
2026-05-04 23:02 39.65285 -86.01682 12757 ft 280 kts 195°
2026-05-04 23:02 39.63413 -86.02022 12745 ft 265 kts 195°
2026-05-04 23:02 39.61547 -86.02396 12752 ft 277 kts 196°
2026-05-04 23:03 39.59556 -86.02816 12804 ft 305 kts 195°
2026-05-04 23:03 39.57358 -86.03258 12866 ft 332 kts 194°
2026-05-04 23:03 39.55022 -86.03708 13056 ft 351 kts 194°
2026-05-04 23:03 39.52599 -86.04173 13803 ft 352 kts 194°
2026-05-04 23:04 39.50161 -86.04658 14341 ft 357 kts 194°
2026-05-04 23:04 39.47691 -86.05153 14932 ft 361 kts 194°
2026-05-04 23:04 39.45184 -86.05648 15509 ft 366 kts 194°
2026-05-04 23:04 39.42650 -86.06145 16099 ft 370 kts 194°
2026-05-04 23:05 39.40089 -86.06651 16711 ft 375 kts 194°
2026-05-04 23:05 39.37484 -86.07165 17320 ft 380 kts 194°
2026-05-04 23:05 39.34852 -86.07683 17970 ft 385 kts 194°
2026-05-04 23:05 39.32217 -86.08201 18542 ft 389 kts 193°
2026-05-04 23:06 39.29530 -86.08728 19182 ft 392 kts 194°
2026-05-04 23:06 39.26826 -86.09260 19833 ft 394 kts 194°
2026-05-04 23:06 39.24985 -86.09621 20286 ft 396 kts 194°
2026-05-04 23:06 39.22251 -86.10157 20921 ft 399 kts 194°
2026-05-04 23:07 39.19522 -86.10693 21543 ft 403 kts 194°
2026-05-04 23:07 39.16739 -86.11238 22156 ft 407 kts 194°
2026-05-04 23:07 39.13925 -86.11788 22768 ft 410 kts 194°
2026-05-04 23:07 39.11090 -86.12343 23355 ft 414 kts 194°
2026-05-04 23:08 39.08231 -86.12902 23879 ft 417 kts 194°
2026-05-04 23:08 39.05342 -86.13466 24339 ft 421 kts 194°
2026-05-04 23:08 39.02422 -86.14037 24757 ft 427 kts 194°
2026-05-04 23:08 38.99471 -86.14611 25260 ft 430 kts 194°
2026-05-04 23:09 38.96502 -86.15188 25740 ft 433 kts 194°
2026-05-04 23:09 38.93501 -86.15773 26228 ft 437 kts 194°
2026-05-04 23:09 38.90487 -86.16360 26712 ft 440 kts 194°
2026-05-04 23:09 38.87442 -86.16952 27200 ft 444 kts 194°
2026-05-04 23:10 38.84383 -86.17544 27674 ft 447 kts 194°
2026-05-04 23:10 38.81299 -86.18140 28207 ft 449 kts 194°
2026-05-04 23:10 38.78194 -86.18744 28709 ft 452 kts 194°
2026-05-04 23:10 38.75071 -86.19349 29194 ft 455 kts 194°
2026-05-04 23:11 38.71917 -86.19959 29666 ft 459 kts 194°
2026-05-04 23:11 38.68787 -86.20554 30082 ft 463 kts 194°
2026-05-04 23:11 38.65520 -86.20778 30441 ft 474 kts 185°
2026-05-04 23:11 38.62199 -86.20406 30854 ft 483 kts 176°
2026-05-04 23:12 38.58924 -86.19431 31457 ft 486 kts 168°
2026-05-04 23:12 38.55758 -86.17865 32068 ft 490 kts 159°
2026-05-04 23:12 38.52776 -86.15720 32653 ft 493 kts 150°
2026-05-04 23:12 38.50083 -86.13074 33251 ft 496 kts 141°
2026-05-04 23:13 38.47659 -86.09922 33857 ft 496 kts 134°
2026-05-04 23:13 38.45346 -86.06646 34394 ft 495 kts 134°
2026-05-04 23:13 38.43029 -86.03395 34921 ft 494 kts 135°
2026-05-04 23:13 38.40721 -86.00163 35442 ft 493 kts 135°
2026-05-04 23:14 38.38422 -85.96927 35972 ft 492 kts 135°
2026-05-04 23:14 38.36122 -85.93689 36499 ft 491 kts 135°
2026-05-04 23:14 38.33830 -85.90477 37023 ft 490 kts 135°
2026-05-04 23:14 38.31533 -85.87268 37552 ft 489 kts 135°
2026-05-04 23:15 38.29247 -85.84070 38086 ft 488 kts 135°
2026-05-04 23:15 38.26999 -85.80923 38587 ft 487 kts 135°
2026-05-04 23:15 38.24717 -85.77734 38978 ft 488 kts 135°
2026-05-04 23:15 38.22430 -85.74548 39313 ft 489 kts 135°
2026-05-04 23:16 38.20129 -85.71344 39660 ft 490 kts 135°
2026-05-04 23:16 38.17825 -85.68133 40012 ft 492 kts 135°
2026-05-04 23:16 38.15512 -85.64916 40360 ft 493 kts 135°
2026-05-04 23:16 38.13182 -85.61715 40717 ft 493 kts 137°
2026-05-04 23:17 38.10605 -85.58863 41028 ft 490 kts 147°
2026-05-04 23:17 38.07725 -85.56575 41377 ft 486 kts 157°
2026-05-04 23:17 38.04627 -85.54903 41746 ft 480 kts 166°
2026-05-04 23:17 38.01444 -85.53699 42116 ft 477 kts 171°
2026-05-04 23:18 37.98264 -85.52670 42483 ft 478 kts 171°
2026-05-04 23:18 37.95055 -85.51498 42835 ft 482 kts 167°
2026-05-04 23:18 37.91890 -85.50048 43188 ft 485 kts 165°
2026-05-04 23:18 37.88716 -85.48579 43536 ft 485 kts 167°
2026-05-04 23:19 37.85502 -85.47289 43853 ft 484 kts 169°
2026-05-04 23:19 37.82279 -85.46044 44197 ft 485 kts 168°
2026-05-04 23:19 37.79067 -85.44689 44548 ft 487 kts 167°
2026-05-04 23:19 37.75857 -85.43285 44847 ft 487 kts 167°
2026-05-04 23:20 37.69316 -85.40609 44861 ft 501 kts 168°
2026-05-04 23:20 37.62593 -85.37799 44875 ft 516 kts 167°
2026-05-04 23:21 37.55748 -85.34965 44880 ft 526 kts 167°
2026-05-04 23:21 37.48732 -85.32065 44886 ft 533 kts 167°
2026-05-04 23:22 37.41640 -85.29133 44951 ft 540 kts 167°
2026-05-04 23:22 37.34450 -85.26177 44950 ft 545 kts 167°
2026-05-04 23:23 37.27216 -85.23197 44947 ft 549 kts 167°
2026-05-04 23:23 37.19940 -85.20215 44909 ft 550 kts 167°
2026-05-04 23:24 37.12661 -85.17232 44878 ft 550 kts 167°
2026-05-04 23:24 37.05375 -85.14257 44908 ft 551 kts 167°
2026-05-04 23:25 36.98137 -85.11303 44928 ft 551 kts 167°
2026-05-04 23:25 36.90847 -85.08338 44936 ft 551 kts 167°
2026-05-04 23:26 36.83563 -85.05379 44945 ft 550 kts 167°
2026-05-04 23:26 36.79989 -85.03923 44945 ft 531 kts 167°
2026-05-04 23:26 36.76492 -85.02505 44936 ft 527 kts 167°
2026-05-04 23:27 36.69467 -84.99682 44938 ft 532 kts 167°
2026-05-04 23:27 36.62426 -84.96822 44938 ft 533 kts 167°
2026-05-04 23:28 36.55347 -84.93979 44943 ft 533 kts 167°
2026-05-04 23:28 36.48278 -84.91128 44951 ft 534 kts 167°
2026-05-04 23:29 36.41205 -84.88290 44956 ft 534 kts 167°
2026-05-04 23:29 36.34166 -84.85472 44948 ft 536 kts 167°
2026-05-04 23:30 36.27075 -84.82634 44953 ft 535 kts 167°
2026-05-04 23:30 36.19984 -84.79805 44966 ft 535 kts 168°
2026-05-04 23:31 36.12900 -84.76982 44943 ft 535 kts 168°
2026-05-04 23:31 36.05799 -84.74160 44994 ft 536 kts 168°
2026-05-04 23:32 35.98681 -84.71333 44993 ft 536 kts 168°
2026-05-04 23:32 35.91582 -84.68522 44992 ft 537 kts 168°
2026-05-04 23:33 35.84505 -84.65722 44962 ft 536 kts 168°
2026-05-04 23:33 35.77401 -84.62920 44969 ft 536 kts 168°
2026-05-04 23:34 35.70292 -84.60119 44981 ft 537 kts 168°
2026-05-04 23:34 35.63173 -84.57319 44958 ft 536 kts 168°
2026-05-04 23:35 35.56049 -84.54524 44979 ft 537 kts 168°
2026-05-04 23:35 35.48921 -84.51731 45006 ft 537 kts 168°
2026-05-04 23:36 35.41793 -84.48946 45009 ft 537 kts 168°
2026-05-04 23:36 35.34695 -84.46174 45014 ft 537 kts 168°
2026-05-04 23:37 35.27545 -84.43391 45001 ft 538 kts 168°
2026-05-04 23:37 35.20407 -84.40613 44997 ft 538 kts 168°
2026-05-04 23:38 35.13258 -84.37840 44983 ft 538 kts 168°
2026-05-04 23:38 35.06113 -84.35072 45003 ft 540 kts 168°
2026-05-04 23:39 34.98961 -84.32306 45018 ft 539 kts 168°
2026-05-04 23:39 34.91853 -84.29562 45025 ft 539 kts 168°
2026-05-04 23:40 34.84706 -84.26809 44999 ft 536 kts 168°
2026-05-04 23:40 34.77580 -84.24071 45034 ft 538 kts 168°
2026-05-04 23:41 34.70434 -84.21331 45044 ft 538 kts 169°
2026-05-04 23:41 34.63175 -84.19433 45028 ft 530 kts 177°
2026-05-04 23:42 34.55924 -84.18178 45018 ft 529 kts 179°
2026-05-04 23:42 34.48619 -84.17051 45016 ft 528 kts 179°
2026-05-04 23:43 34.41311 -84.15955 45023 ft 528 kts 179°
2026-05-04 23:43 34.34009 -84.14868 45022 ft 526 kts 179°
2026-05-04 23:44 34.26742 -84.13791 45026 ft 527 kts 180°
2026-05-04 23:44 34.19527 -84.11899 45025 ft 537 kts 169°
2026-05-04 23:45 34.12425 -84.09037 45041 ft 539 kts 166°
2026-05-04 23:45 34.05366 -84.06215 45037 ft 536 kts 168°
2026-05-04 23:46 33.98260 -84.03409 45037 ft 538 kts 167°
2026-05-04 23:46 33.91141 -84.00556 45039 ft 540 kts 168°
2026-05-04 23:47 33.84008 -83.97748 45044 ft 540 kts 167°
2026-05-04 23:47 33.76881 -83.94908 45038 ft 539 kts 168°
2026-05-04 23:48 33.69750 -83.92104 45028 ft 539 kts 167°
2026-05-04 23:48 33.62622 -83.89280 45029 ft 537 kts 167°
2026-05-04 23:49 33.55515 -83.86491 45027 ft 537 kts 168°
2026-05-04 23:49 33.48423 -83.83696 45037 ft 537 kts 168°
2026-05-04 23:50 33.41312 -83.80910 45037 ft 537 kts 168°
2026-05-04 23:50 33.34212 -83.78125 45042 ft 537 kts 168°
2026-05-04 23:51 33.27155 -83.75367 45039 ft 537 kts 168°
2026-05-04 23:51 33.20047 -83.72599 45040 ft 537 kts 168°
2026-05-04 23:52 33.12947 -83.69817 45032 ft 537 kts 168°
2026-05-04 23:52 33.07041 -83.67529 45030 ft 537 kts 168°
2026-05-04 23:53 32.99932 -83.64760 45038 ft 537 kts 168°
2026-05-04 23:53 32.92828 -83.62007 45040 ft 537 kts 168°
2026-05-04 23:54 32.85714 -83.59250 45049 ft 537 kts 168°
2026-05-04 23:54 32.78605 -83.56503 45049 ft 537 kts 168°
2026-05-04 23:55 32.71543 -83.53777 45000 ft 537 kts 168°
2026-05-04 23:56 32.60910 -83.49683 45039 ft 534 kts 168°
2026-05-04 23:56 32.53820 -83.46956 45042 ft 535 kts 168°
2026-05-04 23:57 32.46746 -83.44242 45042 ft 535 kts 168°
2026-05-04 23:57 32.39708 -83.41546 45046 ft 536 kts 169°
2026-05-04 23:58 32.32610 -83.38830 45064 ft 536 kts 169°
2026-05-04 23:58 32.25511 -83.36124 45073 ft 536 kts 169°
2026-05-04 23:59 32.18418 -83.33418 45082 ft 535 kts 168°
2026-05-04 23:59 32.11325 -83.30714 45072 ft 537 kts 169°
2026-05-05 00:00 32.04209 -83.28013 45063 ft 536 kts 169°
2026-05-05 00:00 31.97093 -83.25313 45053 ft 536 kts 169°
2026-05-05 00:01 31.90069 -83.22651 45052 ft 531 kts 169°
2026-05-05 00:01 31.82994 -83.19984 45065 ft 536 kts 169°
2026-05-05 00:02 31.75892 -83.17295 45071 ft 536 kts 169°
2026-05-05 00:02 31.68769 -83.14617 45077 ft 539 kts 169°
2026-05-05 00:03 31.61594 -83.11913 45053 ft 545 kts 169°
2026-05-05 00:03 31.54363 -83.09197 45059 ft 547 kts 169°
2026-05-05 00:04 31.47098 -83.06475 45067 ft 549 kts 169°
2026-05-05 00:04 31.39828 -83.03698 45059 ft 551 kts 167°
2026-05-05 00:05 31.32942 -82.99475 45014 ft 568 kts 150°
2026-05-05 00:05 31.27135 -82.93094 45046 ft 580 kts 133°
2026-05-05 00:06 31.22901 -82.85080 45045 ft 588 kts 116°
2026-05-05 00:06 31.21351 -82.80634 44704 ft 593 kts 112°
2026-05-05 00:06 31.19995 -82.76122 44205 ft 586 kts 110°
2026-05-05 00:06 31.18659 -82.71647 43685 ft 578 kts 112°
2026-05-05 00:07 31.17104 -82.67341 43163 ft 571 kts 117°
2026-05-05 00:07 31.15337 -82.63213 42666 ft 565 kts 120°
2026-05-05 00:07 31.13495 -82.59172 42186 ft 561 kts 120°
2026-05-05 00:07 31.11802 -82.55082 41717 ft 558 kts 116°
2026-05-05 00:08 31.10281 -82.50927 41262 ft 556 kts 115°
2026-05-05 00:08 31.08706 -82.46800 40826 ft 571 kts 117°
2026-05-05 00:08 31.06945 -82.42623 40409 ft 574 kts 119°
2026-05-05 00:08 31.05180 -82.38415 39994 ft 582 kts 118°
2026-05-05 00:09 31.03495 -82.34106 39594 ft 588 kts 116°
2026-05-05 00:09 31.01805 -82.29741 39200 ft 591 kts 117°
2026-05-05 00:09 31.00040 -82.25414 38768 ft 589 kts 118°
2026-05-05 00:09 30.98260 -82.21135 38288 ft 584 kts 118°
2026-05-05 00:10 30.96538 -82.16859 37777 ft 581 kts 117°
2026-05-05 00:10 30.94850 -82.12588 37119 ft 585 kts 117°
2026-05-05 00:10 30.93107 -82.08273 36488 ft 587 kts 118°
2026-05-05 00:10 30.91329 -82.03958 35877 ft 594 kts 118°
2026-05-05 00:11 30.89572 -81.99651 35292 ft 594 kts 117°
2026-05-05 00:11 30.87827 -81.95303 34660 ft 589 kts 117°
2026-05-05 00:11 30.86091 -81.91007 34082 ft 585 kts 117°
2026-05-05 00:11 30.84345 -81.86753 33421 ft 579 kts 118°
2026-05-05 00:12 30.82619 -81.82553 33076 ft 570 kts 118°
2026-05-05 00:12 30.79191 -81.74135 33090 ft 581 kts 118°
2026-05-05 00:13 30.75693 -81.65604 33092 ft 592 kts 118°
2026-05-05 00:13 30.72146 -81.56949 33089 ft 595 kts 118°
2026-05-05 00:14 30.68560 -81.48240 33108 ft 598 kts 118°
2026-05-05 00:14 30.64949 -81.39527 32260 ft 595 kts 120°
2026-05-05 00:14 30.62729 -81.35606 31446 ft 564 kts 134°
2026-05-05 00:15 30.60040 -81.32503 30712 ft 529 kts 147°
2026-05-05 00:15 30.57066 -81.30192 29992 ft 501 kts 159°
2026-05-05 00:15 30.53940 -81.28627 29308 ft 478 kts 169°
2026-05-05 00:15 30.50798 -81.27756 28662 ft 462 kts 179°
2026-05-05 00:16 30.47632 -81.27467 28047 ft 452 kts 185°
2026-05-05 00:16 30.44493 -81.27319 27430 ft 450 kts 185°
2026-05-05 00:16 30.41382 -81.27152 26824 ft 446 kts 185°
2026-05-05 00:16 30.38289 -81.26986 26215 ft 442 kts 184°
2026-05-05 00:17 30.35222 -81.26833 25612 ft 438 kts 184°
2026-05-05 00:17 30.32183 -81.26683 25018 ft 435 kts 184°
2026-05-05 00:17 30.29177 -81.26528 24431 ft 431 kts 184°
2026-05-05 00:17 30.26189 -81.26372 23852 ft 428 kts 183°
2026-05-05 00:18 30.23226 -81.26194 23225 ft 424 kts 182°
2026-05-05 00:18 30.20296 -81.25996 22654 ft 421 kts 182°
2026-05-05 00:18 30.17420 -81.25814 22093 ft 417 kts 182°
2026-05-05 00:18 30.14529 -81.25645 21529 ft 414 kts 182°
2026-05-05 00:19 30.11665 -81.25473 20972 ft 411 kts 182°
2026-05-05 00:19 30.08820 -81.25294 20413 ft 408 kts 181°
2026-05-05 00:19 30.05996 -81.25118 19866 ft 404 kts 181°
2026-05-05 00:19 30.03187 -81.24947 19321 ft 401 kts 181°
2026-05-05 00:20 30.00409 -81.24778 18772 ft 398 kts 181°
2026-05-05 00:20 29.97654 -81.24608 18214 ft 395 kts 181°
2026-05-05 00:20 29.94956 -81.24443 17670 ft 392 kts 181°
2026-05-05 00:20 29.92243 -81.24282 17085 ft 388 kts 181°
2026-05-05 00:21 29.89560 -81.24236 16553 ft 385 kts 182°
2026-05-05 00:21 29.86892 -81.24104 16029 ft 383 kts 180°
2026-05-05 00:21 29.84245 -81.23958 15514 ft 379 kts 180°
2026-05-05 00:21 29.81616 -81.23875 14991 ft 376 kts 181°
2026-05-05 00:22 29.79004 -81.23806 14486 ft 374 kts 181°
2026-05-05 00:22 29.76412 -81.23708 13976 ft 372 kts 180°
2026-05-05 00:22 29.73834 -81.23600 13441 ft 368 kts 180°
2026-05-05 00:22 29.71285 -81.23507 12937 ft 365 kts 180°
2026-05-05 00:23 29.68753 -81.23422 12445 ft 363 kts 180°
2026-05-05 00:23 29.66240 -81.23331 12032 ft 352 kts 180°
2026-05-05 00:23 29.63917 -81.23213 12008 ft 317 kts 179°
2026-05-05 00:23 29.61808 -81.23073 12005 ft 292 kts 179°
2026-05-05 00:24 29.59788 -81.22957 12015 ft 292 kts 180°
2026-05-05 00:24 29.57743 -81.22856 11955 ft 312 kts 180°
2026-05-05 00:24 29.55438 -81.22738 11744 ft 349 kts 179°
2026-05-05 00:24 29.52991 -81.22593 11448 ft 353 kts 179°
2026-05-05 00:25 29.50556 -81.22447 11139 ft 339 kts 179°
2026-05-05 00:25 29.48282 -81.22320 10838 ft 316 kts 179°
2026-05-05 00:25 29.46148 -81.22207 10559 ft 299 kts 180°
2026-05-05 00:25 29.44092 -81.22096 10301 ft 294 kts 180°
2026-05-05 00:26 29.42051 -81.21983 10044 ft 293 kts 180°
2026-05-05 00:26 29.40016 -81.21869 9775 ft 292 kts 179°
2026-05-05 00:26 29.37991 -81.21757 9513 ft 291 kts 180°
2026-05-05 00:26 29.35971 -81.21648 9257 ft 290 kts 180°
2026-05-05 00:27 29.33961 -81.21566 8993 ft 288 kts 180°
2026-05-05 00:27 29.31960 -81.21495 8737 ft 287 kts 180°
2026-05-05 00:27 29.29968 -81.21413 8479 ft 286 kts 180°
2026-05-05 00:27 29.28000 -81.21327 8241 ft 286 kts 180°
2026-05-05 00:28 29.26015 -81.21244 7986 ft 284 kts 180°
2026-05-05 00:28 29.24046 -81.21111 7724 ft 283 kts 176°
2026-05-05 00:28 29.22088 -81.20955 7484 ft 281 kts 180°
2026-05-05 00:28 29.20131 -81.20881 7240 ft 281 kts 180°
2026-05-05 00:29 29.18184 -81.20767 6995 ft 279 kts 179°
2026-05-05 00:29 29.16245 -81.20619 6763 ft 278 kts 177°
2026-05-05 00:29 29.14314 -81.20482 6525 ft 278 kts 178°
2026-05-05 00:29 29.12388 -81.20356 6265 ft 276 kts 178°
2026-05-05 00:30 29.10507 -81.20351 6016 ft 273 kts 182°
2026-05-05 00:30 29.08602 -81.20316 5779 ft 274 kts 180°
2026-05-05 00:30 29.06695 -81.20259 5540 ft 274 kts 180°
2026-05-05 00:30 29.04794 -81.20241 5292 ft 272 kts 181°
2026-05-05 00:31 29.02906 -81.20251 5058 ft 269 kts 184°
2026-05-05 00:31 29.01147 -81.20651 5028 ft 254 kts 197°
2026-05-05 00:31 28.99421 -81.21203 5032 ft 259 kts 197°
2026-05-05 00:31 28.97680 -81.21737 5036 ft 259 kts 196°
2026-05-05 00:32 28.95934 -81.22257 5036 ft 259 kts 197°
2026-05-05 00:32 28.94196 -81.22781 5039 ft 257 kts 197°
2026-05-05 00:32 28.92544 -81.23280 5017 ft 234 kts 196°
2026-05-05 00:32 28.91036 -81.23810 5015 ft 222 kts 199°
2026-05-05 00:33 28.89560 -81.24335 4992 ft 221 kts 206°
2026-05-05 00:33 28.88276 -81.25345 4640 ft 228 kts 221°
2026-05-05 00:33 28.87100 -81.26555 4267 ft 228 kts 223°
2026-05-05 00:33 28.85943 -81.27789 3895 ft 228 kts 222°
2026-05-05 00:34 28.84800 -81.29052 3532 ft 228 kts 222°
2026-05-05 00:34 28.83691 -81.30326 3164 ft 230 kts 223°
2026-05-05 00:34 28.82556 -81.31646 2791 ft 231 kts 223°
2026-05-05 00:34 28.81455 -81.32947 2419 ft 231 kts 223°
2026-05-05 00:35 28.80330 -81.34272 2050 ft 239 kts 223°
2026-05-05 00:35 28.79109 -81.35717 2038 ft 259 kts 223°
2026-05-05 00:35 28.77854 -81.37196 2016 ft 254 kts 224°
2026-05-05 00:35 28.76680 -81.38582 2005 ft 235 kts 222°
2026-05-05 00:36 28.75569 -81.39923 2000 ft 230 kts 224°
2026-05-05 00:36 28.74466 -81.41235 2004 ft 228 kts 223°
2026-05-05 00:36 28.73376 -81.42545 2005 ft 226 kts 223°
2026-05-05 00:36 28.72290 -81.43847 2006 ft 227 kts 223°
2026-05-05 00:37 28.71209 -81.45162 1998 ft 228 kts 223°
2026-05-05 00:37 28.70119 -81.46472 1997 ft 226 kts 223°
2026-05-05 00:37 28.69040 -81.47783 2007 ft 228 kts 224°
2026-05-05 00:37 28.67955 -81.49080 1996 ft 230 kts 223°
2026-05-05 00:38 28.66840 -81.50407 2005 ft 228 kts 223°
2026-05-05 00:38 28.65754 -81.51694 2004 ft 230 kts 223°
2026-05-05 00:38 28.64646 -81.53010 2007 ft 229 kts 221°
2026-05-05 00:38 28.63438 -81.54176 1990 ft 228 kts 214°
2026-05-05 00:39 28.62169 -81.55262 2003 ft 228 kts 213°
2026-05-05 00:39 28.60887 -81.56351 1993 ft 231 kts 213°
2026-05-05 00:39 28.59602 -81.57440 1997 ft 228 kts 212°
2026-05-05 00:39 28.58505 -81.58758 1980 ft 231 kts 231°
2026-05-05 00:40 28.57607 -81.60283 1991 ft 233 kts 233°
2026-05-05 00:40 28.56712 -81.61811 2001 ft 232 kts 233°
2026-05-05 00:40 28.56066 -81.62777 1966 ft 231 kts 223°
2026-05-05 00:40 28.54837 -81.63828 1916 ft 209 kts 203°
2026-05-05 00:41 28.53562 -81.64276 1921 ft 183 kts 180°
2026-05-05 00:41 28.52309 -81.64156 1954 ft 180 kts 163°
2026-05-05 00:41 28.51108 -81.63793 1880 ft 178 kts 158°
2026-05-05 00:41 28.49916 -81.63323 1856 ft 181 kts 158°
2026-05-05 00:42 28.48725 -81.62876 1760 ft 176 kts 154°
2026-05-05 00:42 28.47608 -81.62327 1896 ft 177 kts 148°
2026-05-05 00:42 28.46738 -81.61395 2079 ft 171 kts 117°
2026-05-05 00:42 28.46390 -81.60105 2103 ft 172 kts 96°
2026-05-05 00:43 28.46481 -81.58770 2058 ft 172 kts 76°
2026-05-05 00:43 28.46900 -81.57486 2140 ft 172 kts 74°
2026-05-05 00:43 28.47242 -81.56232 2247 ft 150 kts 74°
2026-05-05 00:43 28.47526 -81.55231 2198 ft 120 kts 78°
2026-05-05 00:44 28.47722 -81.54332 2066 ft 115 kts 78°
2026-05-05 00:44 28.47896 -81.53466 2024 ft 113 kts 79°
2026-05-05 00:44 28.48061 -81.52596 1990 ft 113 kts 79°
2026-05-05 00:44 28.48220 -81.51717 1938 ft 114 kts 81°
2026-05-05 00:45 28.48382 -81.50836 1825 ft 113 kts 81°
2026-05-05 00:45 28.48531 -81.49968 1645 ft 112 kts 82°
2026-05-05 00:45 28.48766 -81.49139 1553 ft 110 kts 71°
2026-05-05 00:45 28.49029 -81.48309 1468 ft 114 kts 73°
2026-05-05 00:46 28.49276 -81.47458 1449 ft 113 kts 74°
2026-05-05 00:46 28.49538 -81.46605 1420 ft 114 kts 73°
2026-05-05 00:46 28.49808 -81.45799 1351 ft 106 kts 71°
2026-05-05 00:46 28.50103 -81.45028 1290 ft 106 kts 69°
2026-05-05 00:47 28.50410 -81.44239 1246 ft 111 kts 71°
2026-05-05 00:47 28.50710 -81.43443 1211 ft 108 kts 71°
2026-05-05 00:47 28.50983 -81.42659 1132 ft 106 kts 72°
2026-05-05 00:47 28.51263 -81.41879 1064 ft 110 kts 70°
2026-05-05 00:48 28.51553 -81.41076 1062 ft 109 kts 69°
2026-05-05 00:48 28.51860 -81.40274 1006 ft 111 kts 67°
2026-05-05 00:48 28.52196 -81.39469 895 ft 114 kts 69°
2026-05-05 00:48 28.52495 -81.38641 804 ft 112 kts 70°
2026-05-05 00:49 28.52816 -81.37833 729 ft 113 kts 68°
2026-05-05 00:49 28.53113 -81.37013 638 ft 111 kts 69°
2026-05-05 00:49 28.53437 -81.36199 511 ft 113 kts 70°
2026-05-05 00:49 28.53743 -81.35369 376 ft 113 kts 70°
2026-05-05 00:50 28.54056 -81.34534 233 ft 116 kts 71°
2026-05-05 00:50 28.54375 -81.33693 116 ft 116 kts 70°
2026-05-05 00:50 28.54637 -81.33000 117 ft 61 kts 67°
2026-05-05 00:50 28.54736 -81.32809 115 ft 9 kts 49°
2026-05-05 00:51 28.54779 -81.32768 116 ft 8 kts 38°
2026-05-05 00:51 28.54826 -81.32728 114 ft 9 kts 34°
2026-05-05 00:51 28.54877 -81.32728 115 ft 7 kts 299°
2026-05-05 00:51 28.54867 -81.32785 113 ft 10 kts 248°
2026-05-05 00:52 28.54832 -81.32878 116 ft 13 kts 246°
2026-05-05 00:52 28.54796 -81.32971 114 ft 13 kts 248°
2026-05-05 00:52 28.54762 -81.33064 116 ft 12 kts 247°
2026-05-05 00:52 28.54725 -81.33181 116 ft 20 kts 262°
2026-05-05 00:53 28.54708 -81.33342 114 ft 21 kts 264°
2026-05-05 00:53 28.54693 -81.33506 114 ft 19 kts 264°
2026-05-05 00:53 28.54706 -81.33629 114 ft 14 kts 306°
2026-05-05 00:53 28.54774 -81.33685 115 ft 9 kts 341°
2026-05-05 00:54 28.54799 -81.33709 115 ft 0 kts 315°
2026-05-05 00:54 28.54800 -81.33709 115 ft 0 kts 315°